Content
SEND FEEDBACK

Daily
Averages
Monthly
Summary
Thailand

PHUKET, THAILAND


Home > Asia > Thailand
Elevation: 33 feet     Latitude: 08 07N     Longitude: 098 19E

WEATHER
 
SELECT A DAY
Number of Records: 227,916;   Date Range: 7/1/96 - 9/3/14
 
SHARE

PRINT THIS DATA

[ ← Previous Day ]
WEATHER ALMANAC - JANUARY 10, 2013
[ Next Day → ]
[ °C ]   °F
Weather ElementAverageHighLow
Temperature80.5 °F102.2 °F (11:00 am) (5:30 am)
Dewpoint72 °F77 °F (1:00 am) (7:00 pm)
Humidity75.5 %95 % (7:00 am)40 % (11:00 am)
Barometer29.85 in29.92 in (9:30 am)29.77 in (7:00 pm)
Wind Speed4.1 mph9.2 mph (9:30 pm)
Weather ElementAverage
Visibility4.9 mi
Wind DirectionSE (138.8 °)

Weather ElementTotal
Precipitation---
Heating Degree Days13.9 (Base 65)
Growing Degree Days1.1 (Base 50)
Averaged from 44 records on January 10, 2013
WEATHER CONDITIONS BREAKOUT
WIND DIRECTION BREAKOUT
WEATHER BY HOUR - JANUARY 10, 2013
[ °C ]   °F
Local TimeTemperatureDewpointHumidityBarometerVisibilityWind DirectionWind SpeedGust SpeedPrecipitationEventsConditions
1:00 AM80.0 °F77.0 °F86 %29.84 in5.0 miCalmMist
1:00 AM77.0 °F75.2 °F94 %29.86 in5.0 miCalmMostly Cloudy
2:00 AM77.0 °F73.4 °F89 %29.86 in5.0 miCalmMostly Cloudy
3:00 AM75.2 °F73.4 °F94 %29.83 in5.0 miCalmMostly Cloudy
4:00 AM75.2 °F73.4 °F94 %29.83 in5.0 miCalmMostly Cloudy
5:30 AM0.0 °F0.0 °F29.83 in5.0 miCalmMostly Cloudy
6:00 AM75.2 °F73.4 °F94 %29.83 in3.1 miCalmMostly Cloudy
6:30 AM75.2 °F71.6 °F89 %29.86 in3.1 miCalmMostly Cloudy
7:00 AM75.0 °F74.0 °F95 %29.83 in3.0 miCalmMist
7:00 AM75.2 °F73.4 °F94 %29.86 in3.1 miCalmMostly Cloudy
7:30 AM75.2 °F73.4 °F94 %29.86 in3.1 miCalmMostly Cloudy
8:00 AM77.0 °F75.2 °F94 %29.89 in4.3 miCalmMostly Cloudy
8:30 AM80.6 °F75.2 °F84 %29.89 in5.6 miEast (80°)4.6 mphMostly Cloudy
9:00 AM82.4 °F75.2 °F79 %29.89 in5.0 miEast (90°)5.8 mphMostly Cloudy
9:30 AM84.2 °F75.2 °F74 %29.92 in5.0 miEast (90°)4.6 mphMostly Cloudy
10:00 AM86.0 °F73.4 °F66 %29.92 in5.0 miWest (280°)4.6 mphMostly Cloudy
10:30 AM86.0 °F73.4 °F66 %29.89 in5.0 miWNW (300°)4.6 mphScattered Clouds
11:00 AM102.2 °F73.4 °F40 %29.89 in5.6 miWNW (300°)4.6 mphScattered Clouds
11:30 AM86.0 °F73.4 °F66 %29.89 in5.6 miWNW (290°)4.6 mphScattered Clouds
12:00 PM86.0 °F73.4 °F66 %29.89 in5.6 miWNW (300°)4.6 mphScattered Clouds
12:30 PM86.0 °F73.4 °F66 %29.86 in5.0 miNW (310°)4.6 mphMostly Cloudy
1:00 PM86.0 °F73.4 °F66 %29.86 in5.0 miWest (280°)4.6 mphMostly Cloudy
1:00 PM87.0 °F74.0 °F57 %29.83 in5.0 miWest (280°)4.6 mphMist
1:30 PM86.0 °F73.4 °F66 %29.83 in5.0 miVariable4.6 mphMostly Cloudy
2:30 PM86.0 °F73.4 °F66 %29.80 in5.0 miVariable5.8 mphMostly Cloudy
3:00 PM87.8 °F73.4 °F62 %29.80 in5.0 miVariable6.9 mphMostly Cloudy
3:30 PM86.0 °F73.4 °F66 %29.80 in5.6 miVariable6.9 mphMostly Cloudy
4:00 PM86.0 °F73.4 °F66 %29.80 in5.6 miVariable5.8 mphMostly Cloudy
4:30 PM87.8 °F73.4 °F62 %29.80 in5.6 miNW (310°)8.1 mphMostly Cloudy
5:00 PM86.0 °F73.4 °F66 %29.80 in5.6 miVariable5.8 mphMostly Cloudy
5:30 PM84.2 °F73.4 °F70 %29.80 in5.6 miNW (310°)6.9 mphMostly Cloudy
6:00 PM84.2 °F73.4 °F70 %29.80 in5.0 miVariable4.6 mphMostly Cloudy
6:30 PM82.4 °F73.4 °F74 %29.80 in5.0 miNNW (330°)6.9 mphMostly Cloudy
7:00 PM82.4 °F73.4 °F74 %29.80 in5.0 miVariable6.9 mphMostly Cloudy
7:00 PM84.0 °F75.0 °F69 %29.77 in4.0 miWNW (290°)4.6 mphMist
7:30 PM82.4 °F73.4 °F74 %29.83 in5.0 miVariable6.9 mphMostly Cloudy
8:00 PM82.4 °F73.4 °F74 %29.83 in5.0 miNNW (330°)8.1 mphMostly Cloudy
8:30 PM82.4 °F73.4 °F74 %29.86 in5.0 miWNW (300°)4.6 mphMostly Cloudy
9:00 PM82.4 °F73.4 °F74 %29.86 in5.0 miWNW (290°)6.9 mphMostly Cloudy
9:30 PM82.4 °F71.6 °F70 %29.86 in5.0 miWNW (300°)9.2 mphMostly Cloudy
10:00 PM80.6 °F73.4 °F79 %29.89 in5.0 miWNW (300°)5.8 mphMostly Cloudy
10:30 PM80.6 °F73.4 °F79 %29.89 in5.0 miNNW (330°)5.8 mphMostly Cloudy
11:00 PM78.8 °F73.4 °F83 %29.89 in5.0 miSE (140°)5.8 mphMostly Cloudy
11:30 PM78.8 °F73.4 °F83 %29.89 in5.0 miCalmMostly Cloudy
Hourly data recorded from VTSP, located miles away from Phuket, Thailand







STORIES FROM OUR PARTNERS